Regional Weather Roundup
Issued by NWS

Home | Current Version | Previous Version | Graphics & Text | Print | Product List | Glossary On
Versions: 1 2 3 4 5 6 7 8 9 10 11 12 13 14 15 16 17 18 19 20 21 22 23 24 25 26 27 28 29 30 31 32 33 34 35 36 37 38 39 40 41 42 43 44 45 46 47 48 49 50
171
ASUS44 KJAN 250003
RWRMS

MISSISSIPPI HOURLY WEATHER ROUNDUP
NATIONAL WEATHER SERVICE JACKSON MS
700 PM CDT THU JUL 24 2014

NOTE: "FAIR: INDICATES FEW OR NO CLOUDS BELOW 12,000 FEET WITH NO
SIGNIFICANT WEATHER AND/OR OBSTRUCTIONS TO VISIBILITY.

MSZ001>002-007>008-010>013-018>021-025>028-034>036-250100-
NORTHWEST MISSISSIPPI

CITY           SKY/WX    TMP DP  RH WIND       PRES   REMARKS
CLARKSDALE     FAIR      81  63  54 N7        29.99F
CLEVELAND      FAIR      80  72  75 N8        29.97S
GREENWOOD      SUNNY     82  68  62 N10       29.96S
6HR MIN TEMP:  82; 6HR MAX TEMP:  88;

GREENVILLE     SUNNY     83  72  69 N9        29.96F
6HR MIN TEMP:  83; 6HR MAX TEMP:  89;

GRENADA        FAIR      81  64  57 N6        29.97S
OLIVE BRANCH   MOSUNNY   77  61  57 NE7       30.00F
OXFORD           N/A     81  61  50 N5        30.00S
TUNICA         CLEAR     77  59  53 N7        30.01S
$$

MSZ003>006-009-014>017-022>024-029>033-037>039-250100-
NORTHEAST MISSISSIPPI

CITY           SKY/WX    TMP DP  RH WIND       PRES   REMARKS
BELMONT        FAIR      78  64  60 NW7       29.98S
COLUMBUS AFB   SUNNY     83  69  62 N8        29.95S
6HR MIN TEMP:  83; 6HR MAX TEMP:  88;

CORINTH        FAIR      77  61  57 NW5       29.98S
GOLDN TRIANGLE MOSUNNY   84  70  61 N9        29.95S
STARKVILLE     FAIR      82  70  65 NW6       29.95S
TUPELO         SUNNY     80  60  50 N10       29.96F
6HR MIN TEMP:  80; 6HR MAX TEMP:  87;

$$

MSZ040-058-250100-
CENTRAL MISSISSIPPI

CITY           SKY/WX    TMP DP  RH WIND       PRES   REMARKS
JACKSON INTL   MOSUNNY   87  72  60 N9        29.94R HX  93
6HR MIN TEMP:  87; 6HR MAX TEMP:  92;

JACKSON HAWKNS SUNNY     87  71  58 N6        29.94S HX  93
6HR MIN TEMP:  87; 6HR MAX TEMP:  91;

MERIDIAN KEY   PTSUNNY   79  74  84 N5        29.94F
6HR MIN TEMP:  74; 6HR MAX TEMP:  92; 6HR PCP:  0.38;

MERIDIAN NAS   PTSUNNY   79  73  82 E7        29.96R
6HR MIN TEMP:  76; 6HR MAX TEMP:  91; 6HR PCP:  0.28;

RAYMOND        FAIR      86  81  84 NW6       29.95R HX 102
VICKSBURG      MOSUNNY   86  74  67 N8        29.94S HX  94
6HR MIN TEMP:  85; 6HR MAX TEMP:  91;

$$

MSZ059>079-250100-
SOUTH MISSISSIPPI

CITY           SKY/WX    TMP DP  RH WIND       PRES   REMARKS
BROOKHAVEN     FAIR      75  73  94 W5        29.97F
COLUMBIA       FAIR      82  75  78 CALM      29.92S
HATTIESBURG    SUNNY     88  70  55 CALM      29.93R HX  93
6HR MIN TEMP:  87; 6HR MAX TEMP:  91;

MCCOMB         CLOUDY    82  73  74 NW7       29.95S
6HR MIN TEMP:  82; 6HR MAX TEMP:  90;

NATCHEZ        MOSUNNY   88  73  62 CALM      29.96S HX  96
6HR MIN TEMP:  82; 6HR MAX TEMP:  88;

PINE BELT      SUNNY     88  72  58 W5        29.96R HX  94
6HR MIN TEMP:  88; 6HR MAX TEMP:  90;

$$

MSZ080>082-250100-
COASTAL MISSISSIPPI

CITY           SKY/WX    TMP DP  RH WIND       PRES   REMARKS
BAY ST LOUIS   SUNNY    N/A N/A N/A CALM      29.93S
BILOXI         SUNNY     83  73  72 S8        29.93S
6HR MIN TEMP:  83; 6HR MAX TEMP:  86;

PASCAGOULA     CLEAR     83  72  69 S8        29.94R
6HR MIN TEMP:  83; 6HR MAX TEMP:  87;

GULFPORT       MOSUNNY   87  73  62 SW5       29.93S HX  94
6HR MIN TEMP:  87; 6HR MAX TEMP:  89;

$$



USA.gov is the U.S. government's official web portal to all federal, state and local government web resources and services.